Location: Unspecified
(41.5516°N, 88.1098°W)
Time: 06:17:26
(UTC-05:00)

HST - Visible Passes

Search period start: 01 September 2014 00:00
Search period end: 11 September 2014 00:00
Orbit: 547 x 551 km, 28.5° (Epoch: 31 August)

Date Brightness Start Highest point End Pass type
(mag) Time Alt. Az. Time Alt. Az. Time Alt. Az.
08 Sep 3.0 20:05:38 10° S 20:06:58 11° S 20:08:18 10° SSE visible
09 Sep 3.0 19:58:05 10° SSW 19:59:50 12° S 20:01:36 10° SSE visible
10 Sep 3.0 19:50:44 10° SSW 19:52:43 13° S 19:54:41 10° SSE visible
